User: anonymous
Location: Fort Wayne
(41.1310°N, 85.1290°W)
Time: 05:48:37
(UTC-04:00)
Language:

IDEFIX/ARIANE 42P - Orbit

View from above orbital plane
View from above orbital plane
View from above satellite
View from above satellite

Ground track
Ground track

The orbit data is extracted from the following two-line orbital elements,

1 27422U 02021B   14272.14259350  .00000187  00000-0  89873-4 0  6078
2 27422 098.2903 309.6354 0011146 297.2601 127.8829 14.29054576644981
Epoch (UTC): 29 September 2014 03:25:20
Eccentricity: 0.0011146
inclination: 98.2903°
perigee height: 787 km
apogee height: 803 km
right ascension of ascending node: 309.6354°
argument of perigee: 297.2601°
revolutions per day: 14.29054576
mean anomaly at epoch: 127.8829°
orbit number at epoch: 64498

The dashed part of the orbit path shows where the satellite is in the earth's shadow,  

DLR